Location: *
(46.3500°N, 10.9000°E)
Time: 22:38:46
(UTC+00:00)

Explorer 7 - Pass Details

Date: 23 April 2021
Orbit: 484 x 677 km, 50.3° (Epoch: 13 May)

Event Time Altitude Azimuth Distance (km) Brightness Sun altitude
Rises 22:28:33 0° 292° (WNW) 2,748 10.8 -29.9°
Reaches altitude 10° 22:30:45 10° 293° (WNW) 1,883 9.9 -30.0°
Enters shadow 22:32:06 20° 295° (WNW) 1,368 9.1 -30.0°
Maximum altitude 22:35:04 81° 21° (NNE) 613 - -30.1°
Drops below altitude 10° 22:39:40 10° 110° (ESE) 2,000 - -30.3°
Sets 22:42:03 0° 111° (ESE) 2,935 - -30.3°
